Regional Weather Roundup
Issued by NWS State College, PA

Home | Current Version | Previous Version | Text Only | Print | Product List | Glossary On
Versions: 1 2 3 4 5 6 7 8 9 10 11 12 13 14 15 16 17 18 19 20 21 22 23 24 25 26 27 28 29 30 31 32 33 34 35 36 37 38 39 40 41 42 43 44 45 46 47 48 49 50
000
ASUS41 KCTP 171310
RWRCTP

REGIONAL WEATHER ROUNDUP
NATIONAL WEATHER SERVICE STATE COLLEGE PA
900 AM EDT WED SEP 17 2014

Note: "fair" indicates few or no clouds below 12,000 feet with no
significant weather and/or obstructions to visibility.

* = STATION THAT DOES NOT REPORT PRECIPITATION /E.G. RAIN...SNOW...ETC/
    THUNDER OR FOG.

PAZ002>004-007>009-013>016-020>023-029>032-171400-
WESTERN PENNSYLVANIA

CITY           SKY/WX    TMP DP  RH WIND       PRES   REMARKS
ERIE           SUNNY     55  47  74 S7        30.05F
MEADVILLE      SUNNY     53  48  83 S6        30.07F
FRANKLIN*      SUNNY     50  45  81 CALM      30.09S
NEW CASTLE     PTSUNNY   48  48 100 CALM      30.10S FOG
BEAVER COUNTY  CLOUDY    52  50  93 CALM      30.08S
BUTLER*        PTSUNNY   50  46  87 NE3       30.10S
PITTSBURGH INT MOSUNNY   56  50  80 CALM      30.07S
PITTSBURGH     MOSUNNY   53  49  86 SE3       30.07S FOG
INDIANA*       SUNNY     52  48  87 CALM      30.11F
LATROBE        SUNNY     52  52 100 CALM      30.09S
WASHINGTON CO* PTSUNNY   50  48  93 CALM      30.08S
$$

PAZ004>006-010>012-017>019-024>028-033>037-041-042-045-046-049>053-171400-
CENTRAL PENNSYLVANIA

CITY           SKY/WX    TMP DP  RH WIND       PRES   REMARKS
BRADFORD       SUNNY     47  44  90 CALM      30.08S
DUBOIS         MOSUNNY   50  47  89 NE3       30.07F
CLEARFIELD     FOG       46  46 100 NE3       30.09S VSB 1/4
JOHNSTOWN      MOSUNNY   49  46  90 SW6       30.08S FOG
ALTOONA        MOSUNNY   54  51  90 CALM      30.09S
STATE COLLEGE  FOG       48  48 100 CALM      30.09S VSB 1/4
WILLIAMSPORT   FOG       49  46  90 W6        30.09S VSB 1
SELINSGROVE    CLOUDY    54  53  97 CALM      30.10R FOG
FT INDIANTOWN  SUNNY     59  53  81 CALM      30.08S
CAPITAL CITY   SUNNY     58  51  78 CALM      30.08S
HARRISBURG     SUNNY     59  51  75 CALM      30.08R
YORK           SUNNY     57  52  83 CALM      30.08R
$$

PAZ038>040-043-044-047-048-054-055-060>062-067>071-171400-
EASTERN PENNSYLVANIA

CITY           SKY/WX    TMP DP  RH WIND       PRES   REMARKS
SCRANTON       SUNNY     50  45  83 CALM      30.08S
MOUNT POCONO   SUNNY     54  46  74 CALM      30.08S
ALLENTOWN      SUNNY     54  50  86 CALM      30.08S
QUAKERTOWN*    MOSUNNY   55  50  82 CALM      30.09R
READING        SUNNY     57  52  83 N3        30.08R
LANCASTER      SUNNY     57  52  83 CALM      30.08R
COATESVILLE    SUNNY     59  52  77 CALM      30.08R
POTTSTOWN      SUNNY     58  51  78 CALM      30.09R
BLUE BELL      SUNNY     61  52  72 CALM      30.07R
DOYLESTOWN     SUNNY     58  50  75 CALM      30.07R
WILLOW GROVE   NOT AVBL
NORTH PHILA    SUNNY     64  48  56 NE6       30.09R
PHILADELPHIA   MOSUNNY   64  51  62 CALM      30.07R
$$



USA.gov is the U.S. government's official web portal to all federal, state and local government web resources and services.